Regional Weather Roundup
Issued by NWS Charleston, WV

Home | Current Version | Previous Version | Text Only | Print | Product List | Glossary Off
Versions: 1 2 3 4 5 6 7 8 9 10 11 12 13 14 15 16 17 18 19 20 21 22 23 24 25 26 27 28 29 30 31 32 33 34 35 36 37 38 39 40 41 42 43 44 45 46 47 48 49 50

000
ASUS41 KRLX 102010
RWRRLX
West Virginia Regional Weather Roundup
National Weather Service Charleston WV
300 PM EST WED FEB 10 2016

Note: "fair" indicates few or no clouds below 12,000 feet with no
significant weather and/or obstructions to visibility.

WVZ003-102100-
Northern Panhandle of West Virginia

CITY           SKY/WX    TMP DP  RH WIND       PRES   REMARKS
WHEELING       LGT SNOW  19  11  70 W15G22    29.84R WCI   5
$$

WVZ009-102100-
Northwest West Virginia

CITY           SKY/WX    TMP DP  RH WIND       PRES   REMARKS
PARKERSBURG    HVY SNOW  20  15  81 W12       29.96R VSB 1/4 WCI   8
$$

WVZ006-102100-
Western West Virginia

CITY           SKY/WX    TMP DP  RH WIND       PRES   REMARKS
HUNTINGTON     FLURRIES  21   7  54 W12G20    29.99S WCI   9
$$

WVZ015-102100-
West Central West Virginia

CITY           SKY/WX    TMP DP  RH WIND       PRES   REMARKS
CHARLESTON     FLURRIES  21   7  54 W13G24    29.95S WCI   9
$$

WVZ022-031-102100-
North Central West Virginia

CITY           SKY/WX    TMP DP  RH WIND       PRES   REMARKS
CLARKSBURG     LGT SNOW  19  11  70 W10G20    29.87S WCI   7
MORGANTOWN     CLOUDY    19  10  68 SW10      29.86R HAZE    WCI   7
$$

WVZ025-035-042-045-102100-
Southern West Virginia

CITY           SKY/WX    TMP DP  RH WIND       PRES   REMARKS
BECKLEY        LGT SNOW  16   6  65 W17       29.82S WCI   0
LOGAN          PTSUNNY   19   9  63 SW13G18   29.92S WCI   7
BLUEFIELD      LGT SNOW  13   7  77 NW12G18   29.81R VSB 1   WCI  -1
LEWISBURG      LGT SNOW  20  11  67 NW12G20   29.82R WCI   9
$$

WVZ047-102100-
Northern Mountains of West Virginia

CITY           SKY/WX    TMP DP  RH WIND       PRES   REMARKS
ELKINS         LGT SNOW  16   7  67 W6        29.82R WCI   7
$$

WVZ052-102100-
Eastern Panhandle of West Virginia

CITY           SKY/WX    TMP DP  RH WIND       PRES   REMARKS
MARTINSBURG      N/A     30   9  41 W18G30    29.80R
PETERSBURG     PTSUNNY   24   6  47 W15G24    29.86R
$$



USA.gov is the U.S. government's official web portal to all federal, state and local government web resources and services.